QPF
0.00 0.00 0.00 0.00 0.00 0.00 0.00 0.00 0.00 0.00 0.00 0.00 0.00 0.00 0.00 0.00 0.00 0.00 0.00 0.00 0.00 0.00 0.00 0.00 0.00 0.00 0.00 0.00 0.00 0.00 0.00 0.00 0.00 0.01 0.02 0.01 0.00 0.00 0.00 0.00 0.00 0.00 0.00 0.00
0.00 0.00 0.00 0.00 0.00 0.00 0.00 0.00 0.00 0.00 0.00 0.00 0.00 0.00 0.00 0.00 0.00 0.00 0.00 0.00 0.00 0.00 0.00 0.00 0.00 0.00 0.00 0.00 0.00 0.00 0.00 0.00 0.00 0.01 0.06 0.05 0.02 0.01 0.00 0.00 0.00 0.00 0.00 0.00
0.00 0.00 0.00 0.00 0.00 0.00 0.00 0.00 0.00 0.00 0.00 0.00 0.00 0.00 0.00 0.00 0.00 0.00 0.00 0.00 0.00 0.00 0.00 0.00 0.00 0.00 0.00 0.00 0.00 0.00 0.00 0.00 0.00 0.01 0.04 0.04 0.02 0.01 0.00 0.00 0.00 0.00 0.00 0.00
0.00 0.00 0.00 0.00 0.00 0.00 0.00 0.00 0.00 0.00 0.00 0.00 0.00 0.00 0.00 0.00 0.00 0.00 0.00 0.00 0.00 0.00 0.00 0.00 0.00 0.00 0.00 0.00 0.00 0.00 0.00 0.00 0.00 0.00 0.00 0.02 0.02 0.02 0.02 0.01 0.00 0.00 0.00 0.00
0.00 0.00 0.00 0.00 0.00 0.00 0.00 0.00 0.00 0.00 0.00 0.00 0.00 0.00 0.00 0.00 0.00 0.00 0.00 0.00 0.00 0.00 0.00 0.00 0.00 0.00 0.00 0.00 0.00 0.00 0.00 0.00 0.00 0.00 0.00 0.00 0.01 0.03 0.02 0.01 0.00 0.00 0.00 0.00
0.00 0.00 0.00 0.00 0.00 0.00 0.00 0.00 0.00 0.00 0.00 0.00 0.00 0.00 0.00 0.00 0.00 0.00 0.00 0.00 0.00 0.00 0.00 0.00 0.00 0.00 0.00 0.00 0.00 0.00 0.00 0.00 0.00 0.00 0.00 0.00 0.01 0.01 0.03 0.02 0.01 0.01 0.00 0.00
0.00 0.00 0.00 0.00 0.00 0.00 0.00 0.00 0.01 0.01 0.00 0.00 0.00 0.00 0.00 0.00 0.00 0.00 0.00 0.00 0.00 0.00 0.00 0.00 0.00 0.00 0.00 0.00 0.00 0.00 0.00 0.00 0.00 0.00 0.00 0.00 0.00 0.01 0.04 0.06 0.05 0.02 0.01 0.00
0.00 0.00 0.00 0.00 0.00 0.00 0.00 0.00 0.03 0.06 0.00 0.00 0.00 0.00 0.00 0.00 0.00 0.00 0.00 0.00 0.00 0.00 0.00 0.00 0.00 0.00 0.00 0.00 0.00 0.00 0.00 0.00 0.00 0.00 0.00 0.00 0.01 0.03 0.04 0.05 0.07 0.06 0.03 0.01
0.00 0.00 0.00 0.00 0.00 0.00 0.00 0.00 0.00 0.06 0.02 0.02 0.00 0.00 0.00 0.00 0.00 0.00 0.00 0.00 0.00 0.00 0.00 0.00 0.00 0.00 0.00 0.00 0.00 0.00 0.00 0.00 0.00 0.00 0.00 0.00 0.01 0.03 0.04 0.07 0.08 0.05 0.03 0.01
0.00 0.00 0.00 0.00 0.00 0.00 0.00 0.00 0.01 0.09 0.09 0.04 0.00 0.00 0.00 0.00 0.00 0.00 0.00 0.00 0.00 0.00 0.00 0.00 0.00 0.00 0.00 0.00 0.00 0.00 0.00 0.00 0.00 0.00 0.00 0.00 0.00 0.02 0.06 0.08 0.09 0.08 0.06 0.02
0.00 0.00 0.00 0.00 0.00 0.00 0.00 0.00 0.01 0.01 0.02 0.07 0.07 0.01 0.00 0.00 0.00 0.00 0.00 0.00 0.00 0.00 0.00 0.00 0.00 0.00 0.00 0.00 0.00 0.00 0.01 0.00 0.00 0.00 0.00 0.00 0.00 0.02 0.06 0.09 0.10 0.09 0.05 0.03
0.00 0.00 0.00 0.00 0.00 0.00 0.00 0.00 0.00 0.03 0.02 0.03 0.04 0.02 0.00 0.00 0.00 0.00 0.00 0.00 0.00 0.00 0.00 0.00 0.00 0.00 0.00 0.00 0.00 0.00 0.01 0.00 0.00 0.00 0.00 0.00 0.01 0.04 0.10 0.11 0.09 0.09 0.05 0.03
0.00 0.00 0.00 0.00 0.00 0.00 0.00 0.00 0.00 0.00 0.00 0.00 0.00 0.00 0.00 0.00 0.00 0.00 0.00 0.00 0.00 0.00 0.00 0.00 0.00 0.00 0.00 0.00 0.00 0.01 0.05 0.07 0.00 0.00 0.00 0.01 0.03 0.05 0.09 0.10 0.13 0.09 0.05 0.03
0.00 0.00 0.00 0.00 0.00 0.00 0.00 0.00 0.00 0.00 0.00 0.00 0.00 0.00 0.00 0.00 0.00 0.00 0.00 0.00 0.00 0.00 0.00 0.00 0.00 0.00 0.00 0.02 0.02 0.04 0.02 0.00 0.00 0.00 0.02 0.05 0.08 0.10 0.09 0.09 0.12 0.15 0.15 0.06
0.00 0.00 0.00 0.00 0.00 0.00 0.00 0.00 0.00 0.00 0.00 0.00 0.00 0.00 0.00 0.01 0.01 0.00 0.00 0.01 0.01 0.00 0.00 0.00 0.00 0.00 0.00 0.03 0.11 0.10 0.05 0.01 0.00 0.01 0.04 0.09 0.12 0.14 0.16 0.18 0.18 0.17 0.19 0.17
0.00 0.00 0.00 0.00 0.00 0.00 0.00 0.00 0.00 0.00 0.00 0.01 0.04 0.03 0.01 0.00 0.00 0.00 0.00 0.01 0.02 0.03 0.02 0.00 0.02 0.07 0.07 0.10 0.14 0.07 0.03 0.05 0.04 0.04 0.08 0.15 0.24 0.30 0.30 0.27 0.25 0.18 0.18 0.17
0.00 0.00 0.00 0.00 0.00 0.00 0.00 0.00 0.00 0.00 0.00 0.03 0.05 0.03 0.01 0.00 0.01 0.01 0.02 0.05 0.11 0.08 0.03 0.01 0.04 0.04 0.01 0.02 0.03 0.04 0.02 0.02 0.09 0.10 0.14 0.18 0.27 0.40 0.37 0.31 0.27 0.19 0.13 0.08
0.00 0.00 0.00 0.00 0.00 0.01 0.00 0.00 0.00 0.01 0.01 0.00 0.02 0.02 0.01 0.06 0.13 0.08 0.06 0.05 0.03 0.01 0.00 0.00 0.00 0.00 0.00 0.00 0.02 0.01 0.00 0.03 0.09 0.15 0.21 0.25 0.31 0.34 0.32 0.30 0.18 0.10 0.06 0.04
0.00 0.00 0.01 0.01 0.01 0.00 0.00 0.02 0.01 0.00 0.00 0.04 0.10 0.02 0.01 0.02 0.15 0.13 0.01 0.01 0.01 0.00 0.00 0.00 0.00 0.00 0.00 0.00 0.00 0.00 0.00 0.03 0.14 0.23 0.21 0.26 0.24 0.18 0.20 0.18 0.10 0.06 0.03 0.02
0.00 0.01 0.03 0.03 0.03 0.01 0.00 0.01 0.01 0.00 0.06 0.09 0.06 0.09 0.13 0.13 0.22 0.10 0.02 0.03 0.03 0.00 0.00 0.00 0.00 0.00 0.00 0.00 0.00 0.00 0.00 0.03 0.14 0.39 0.25 0.25 0.23 0.09 0.09 0.09 0.06 0.04 0.02 0.01
0.00 0.03 0.06 0.05 0.03 0.01 0.00 0.00 0.00 0.02 0.05 0.02 0.05 0.12 0.14 0.10 0.08 0.04 0.02 0.01 0.00 0.00 0.00 0.00 0.00 0.00 0.00 0.00 0.00 0.00 0.00 0.01 0.04 0.27 0.40 0.28 0.28 0.10 0.05 0.05 0.04 0.01 0.00 0.00
0.00 0.00 0.01 0.01 0.02 0.02 0.01 0.00 0.00 0.02 0.01 0.04 0.13 0.08 0.02 0.01 0.01 0.02 0.00 0.00 0.00 0.00 0.00 0.00 0.00 0.00 0.00 0.00 0.00 0.00 0.00 0.00 0.00 0.03 0.16 0.30 0.24 0.09 0.03 0.02 0.01 0.00 0.00 0.00
0.00 0.00 0.01 0.04 0.03 0.01 0.00 0.00 0.01 0.04 0.10 0.07 0.10 0.03 0.02 0.00 0.01 0.00 0.00 0.00 0.00 0.00 0.00 0.00 0.00 0.00 0.00 0.00 0.00 0.00 0.00 0.00 0.00 0.00 0.02 0.12 0.19 0.11 0.02 0.01 0.00 0.00 0.00 0.00
0.00 0.00 0.01 0.00 0.00 0.00 0.00 0.01 0.04 0.10 0.11 0.05 0.03 0.02 0.01 0.01 0.00 0.00 0.00 0.00 0.00 0.00 0.00 0.00 0.00 0.00 0.00 0.00 0.00 0.00 0.00 0.00 0.00 0.00 0.00 0.01 0.05 0.15 0.08 0.03 0.03 0.00 0.00 0.00
0.01 0.00 0.01 0.00 0.00 0.00 0.02 0.07 0.09 0.05 0.00 0.01 0.00 0.00 0.00 0.00 0.00 0.00 0.00 0.00 0.00 0.00 0.00 0.00 0.00 0.00 0.00 0.00 0.00 0.00 0.00 0.00 0.00 0.00 0.00 0.00 0.00 0.04 0.14 0.05 0.05 0.02 0.00 0.00
0.00 0.00 0.00 0.00 0.00 0.01 0.01 0.01 0.03 0.02 0.01 0.01 0.00 0.00 0.00 0.00 0.00 0.00 0.00 0.00 0.00 0.00 0.00 0.00 0.00 0.00 0.00 0.00 0.00 0.00 0.00 0.00 0.00 0.00 0.00 0.01 0.01 0.01 0.09 0.14 0.07 0.05 0.02 0.00
MSLP
1004.06 1003.70 1002.38 1001.85 1001.45 1000.96 1000.48 1000.00 999.03 998.86 998.85 998.58 998.34 996.98 996.85 996.84 996.86 996.55 996.69 996.88 996.88 997.03 997.38 997.35 997.41 997.89 999.15 1000.56 1002.28 1003.55 1004.66 1005.83 1006.91 1007.61 1008.27 1008.89 1009.36 1010.26 1010.76 1011.15 1011.50 1012.23 1012.50 1013.21
1003.79 1002.64 1002.24 1002.12 1001.91 1001.54 1001.02 1000.47 999.81 999.24 999.12 998.79 998.25 996.78 996.77 997.14 996.67 996.47 996.27 996.44 996.79 996.87 996.55 996.10 997.04 997.45 998.60 999.80 1001.30 1002.83 1004.05 1005.14 1006.21 1007.06 1007.49 1008.04 1008.12 1008.96 1009.51 1010.32 1011.00 1011.84 1012.06 1012.77
1002.55 1001.47 1001.74 1002.08 1001.91 1001.75 1001.27 1000.57 1000.28 1000.08 999.79 998.90 999.04 997.39 994.71 995.93 995.48 995.52 995.86 996.20 996.74 997.22 996.77 997.01 997.44 998.45 999.18 999.84 1000.59 1002.30 1003.45 1004.42 1005.40 1006.20 1007.11 1007.44 1007.84 1008.39 1008.49 1009.10 1010.19 1011.10 1011.78 1012.35
1002.52 1001.97 1002.02 1002.14 1001.98 1001.88 1001.23 1001.44 1001.13 1000.81 1000.77 999.10 998.77 998.23 993.03 996.54 995.37 995.37 995.61 995.95 996.66 997.52 998.16 998.40 998.49 998.97 999.55 999.73 1000.42 1001.52 1002.74 1003.77 1004.74 1005.48 1006.09 1006.37 1006.64 1006.83 1007.01 1007.77 1008.84 1009.82 1010.91 1011.73
1002.66 1002.04 1002.05 1001.85 1001.99 1002.26 1001.91 1002.50 1002.13 1002.12 1001.56 1000.96 997.35 999.04 992.52 996.73 995.27 995.26 995.33 996.22 997.24 998.10 998.98 999.43 999.59 999.67 999.66 999.64 999.93 1000.68 1001.81 1003.30 1004.22 1004.94 1005.62 1005.61 1005.82 1006.09 1006.32 1006.96 1008.06 1009.10 1010.34 1011.11
1002.79 1002.54 1002.33 1002.34 1002.64 1003.25 1003.52 1003.86 1003.13 1002.66 1002.17 1000.83 998.02 998.35 993.59 995.43 995.11 995.24 996.35 997.04 997.90 998.62 999.47 1000.12 1000.57 1000.91 1000.74 1000.49 1000.49 1000.30 1001.04 1002.71 1003.83 1004.55 1005.13 1005.18 1005.32 1005.65 1005.99 1006.35 1007.01 1008.02 1009.22 1010.24
1002.89 1002.35 1002.19 1003.59 1003.52 1003.74 1004.57 1004.98 1004.06 1003.14 1001.74 1000.25 999.36 997.85 995.26 995.47 995.52 996.29 997.48 998.20 998.90 1000.00 1000.52 1001.25 1001.40 1001.54 1001.41 1001.49 1001.37 1001.15 1001.43 1002.06 1003.68 1004.39 1004.90 1005.24 1005.45 1005.65 1005.44 1005.73 1006.41 1007.39 1008.26 1008.95
1004.39 1003.14 1002.75 1004.72 1005.19 1005.27 1005.52 1006.92 1006.53 1005.10 1003.27 1001.57 1000.39 998.38 996.60 996.46 996.50 997.70 998.60 999.43 1000.00 1000.54 1001.27 1001.46 1001.61 1001.54 1001.39 1001.34 1001.24 1001.44 1001.64 1002.36 1003.39 1004.07 1004.62 1005.04 1005.54 1005.76 1005.75 1005.82 1006.18 1007.08 1008.02 1008.55
1007.45 1006.11 1006.07 1006.54 1007.01 1007.23 1007.48 1007.64 1007.88 1008.29 1006.68 1005.24 1002.13 1000.18 998.41 997.95 998.15 999.23 1000.40 1001.15 1001.43 1001.34 1001.29 1001.26 1001.44 1001.42 1001.08 1001.09 1001.37 1001.36 1001.50 1001.82 1002.66 1003.54 1004.34 1004.90 1005.32 1005.54 1005.80 1006.16 1006.57 1007.33 1007.72 1008.31
1010.92 1009.20 1007.58 1007.33 1007.85 1007.22 1007.60 1007.93 1008.85 1009.74 1008.02 1005.78 1002.93 1001.43 999.42 999.59 1000.40 1001.06 1001.49 1002.01 1001.96 1001.63 1001.47 1001.69 1001.67 1001.28 1000.87 1000.48 1000.60 1000.68 1001.03 1001.36 1001.67 1002.46 1003.53 1004.40 1004.96 1005.41 1005.88 1006.32 1006.80 1007.39 1008.14 1008.31
1012.36 1011.85 1009.24 1008.92 1008.37 1007.77 1007.99 1008.73 1010.26 1010.35 1009.56 1008.29 1006.46 1003.28 1002.39 1002.91 1003.06 1002.70 1002.42 1002.45 1002.54 1002.23 1001.63 1001.31 1000.97 1000.63 999.88 999.41 999.46 999.85 1000.18 1000.77 1001.00 1001.74 1002.56 1003.80 1004.62 1005.34 1005.90 1006.41 1006.85 1007.22 1007.95 1008.57
1013.87 1012.84 1010.84 1009.61 1009.06 1008.76 1009.05 1009.40 1010.59 1010.90 1010.54 1010.07 1009.00 1005.77 1005.08 1004.63 1004.29 1003.87 1003.32 1002.50 1001.74 1001.44 1000.90 1000.46 999.96 999.19 998.24 998.06 997.97 998.10 998.43 998.87 1000.64 1001.22 1002.16 1003.30 1004.32 1005.02 1005.77 1006.50 1006.94 1007.47 1007.86 1008.18
1014.36 1013.53 1012.01 1009.07 1008.27 1008.76 1008.94 1010.13 1010.81 1011.31 1011.36 1010.04 1009.42 1005.47 1005.78 1005.46 1004.42 1003.48 1002.51 1001.67 1000.91 1000.60 1000.22 999.93 999.01 997.85 997.34 997.07 997.43 997.87 998.37 998.69 1000.53 1001.46 1002.09 1003.10 1004.13 1004.99 1005.40 1006.11 1006.87 1007.85 1008.46 1008.58
1015.42 1014.59 1013.48 1011.60 1010.30 1010.78 1010.65 1010.63 1010.94 1011.20 1010.52 1009.73 1008.32 1006.93 1005.92 1005.07 1003.75 1002.91 1001.95 1001.34 1000.37 1000.39 999.85 998.77 998.00 997.49 996.90 996.96 997.35 997.93 998.43 999.47 1000.77 1001.89 1002.33 1003.31 1003.95 1004.78 1005.46 1006.17 1006.94 1007.62 1008.81 1009.27
1015.28 1014.37 1013.94 1012.77 1012.24 1011.89 1011.27 1010.93 1010.82 1010.17 1009.53 1008.90 1007.87 1006.77 1005.70 1006.19 1005.36 1003.75 1002.28 1001.19 1000.63 1000.59 999.48 998.90 999.15 998.46 997.66 997.71 998.09 998.31 999.13 1000.39 1001.50 1002.01 1002.52 1003.08 1003.90 1004.92 1005.64 1006.17 1007.04 1008.07 1008.99 1009.96
1014.65 1014.17 1014.17 1013.14 1012.93 1012.26 1010.94 1010.40 1009.65 1008.99 1008.18 1007.47 1007.25 1007.22 1006.13 1006.10 1005.95 1004.67 1003.56 1002.38 1001.09 1000.17 999.78 999.90 999.89 1000.02 998.96 998.61 999.01 999.49 1000.23 1000.80 1001.32 1001.61 1002.28 1003.14 1003.97 1005.02 1005.79 1006.35 1007.43 1008.38 1009.11 1009.85
1013.94 1014.03 1014.25 1012.80 1012.49 1011.52 1010.15 1009.15 1008.13 1007.88 1007.64 1007.83 1008.16 1007.55 1007.41 1007.10 1006.44 1005.71 1004.45 1002.96 1001.40 1000.52 1000.04 1000.33 1000.08 999.71 999.55 999.44 999.31 999.16 1000.00 1001.34 1001.94 1002.23 1002.72 1003.44 1004.28 1005.06 1005.70 1006.53 1007.60 1008.36 1009.30 1010.21
1013.36 1013.43 1013.70 1013.10 1012.52 1010.81 1008.96 1007.64 1007.90 1008.49 1008.44 1008.36 1008.84 1009.35 1009.05 1008.02 1007.17 1005.66 1003.61 1002.11 1001.00 1000.47 1000.32 1000.14 999.78 999.67 999.78 999.36 998.74 998.98 1000.56 1001.51 1002.02 1002.46 1003.08 1003.86 1004.44 1005.24 1006.01 1006.73 1007.68 1008.44 1009.40 1010.36
1012.67 1012.98 1012.90 1012.48 1011.39 1009.95 1008.93 1007.94 1009.11 1009.26 1009.12 1010.27 1011.03 1010.32 1009.44 1008.31 1007.00 1004.66 1003.18 1002.40 1001.80 1000.54 1000.08 999.99 999.60 999.46 999.21 999.03 998.98 1000.46 1001.24 1001.77 1002.47 1002.94 1003.72 1004.03 1004.58 1005.14 1005.98 1006.88 1007.79 1008.72 1009.62 1010.76
1011.35 1012.02 1012.83 1012.28 1011.27 1009.96 1008.79 1008.47 1009.87 1009.48 1009.13 1010.86 1011.52 1010.64 1009.90 1008.81 1007.07 1004.36 1002.75 1001.69 1001.20 1000.22 999.69 999.30 998.95 998.72 998.99 999.24 999.58 1000.41 1001.39 1002.34 1002.94 1003.45 1004.10 1004.57 1004.89 1005.33 1005.93 1006.72 1007.80 1008.58 1009.61 1010.29
1010.65 1011.04 1011.76 1011.56 1010.96 1010.14 1009.28 1010.09 1010.06 1010.16 1011.27 1010.89 1011.52 1010.76 1009.73 1008.41 1006.99 1004.38 1002.14 1000.92 1000.28 999.55 998.86 998.64 998.41 998.23 998.60 999.36 999.55 999.95 1001.08 1001.99 1002.89 1003.68 1004.08 1004.91 1005.51 1005.82 1006.25 1006.91 1007.81 1008.86 1009.59 1010.52
1011.05 1011.18 1011.29 1011.40 1011.22 1010.31 1010.58 1010.43 1011.48 1012.19 1011.87 1011.97 1011.23 1010.33 1009.17 1007.99 1005.38 1003.38 1001.91 1001.02 999.70 998.95 998.60 998.13 997.75 997.94 998.19 999.01 999.65 999.69 1000.39 1001.70 1002.75 1003.74 1004.47 1005.15 1005.80 1006.24 1006.73 1007.43 1008.06 1008.57 1009.57 1010.87
1011.12 1011.30 1011.61 1011.89 1011.10 1011.04 1010.68 1011.56 1012.08 1012.13 1012.22 1011.47 1010.94 1009.70 1008.52 1007.12 1005.10 1003.35 1002.13 1001.11 1000.15 998.80 997.91 997.60 997.57 997.75 998.18 998.44 999.25 999.64 1000.49 1001.71 1002.73 1003.88 1004.67 1005.47 1005.78 1006.46 1007.02 1007.34 1007.58 1008.41 1009.82 1010.95
1011.13 1011.12 1010.97 1011.08 1010.57 1010.45 1010.79 1011.08 1011.55 1012.20 1011.85 1011.02 1010.11 1009.09 1008.04 1006.92 1005.55 1004.02 1002.82 1001.61 1000.47 999.23 998.22 997.64 997.60 997.46 997.66 998.34 999.31 1000.06 1000.78 1001.48 1002.50 1003.59 1004.86 1005.52 1006.14 1006.48 1007.06 1007.39 1007.75 1008.53 1009.56 1010.50
1011.13 1011.03 1010.85 1010.69 1010.88 1010.98 1010.97 1011.63 1011.99 1011.69 1010.97 1010.43 1009.40 1008.73 1007.86 1007.01 1006.02 1005.16 1004.00 1002.69 1001.34 1000.02 999.03 998.22 997.77 997.66 997.82 998.16 999.18 1000.76 1001.28 1001.95 1002.73 1003.61 1004.67 1005.65 1006.23 1006.90 1007.26 1007.76 1007.96 1008.37 1009.09 1009.50
1010.37 1010.34 1010.41 1010.31 1010.84 1011.21 1010.91 1011.23 1011.52 1011.13 1010.53 1009.74 1009.05 1008.55 1008.26 1007.61 1006.82 1005.73 1004.60 1003.55 1002.53 1001.67 1000.07 998.79 998.31 998.21 998.18 998.18 999.22 1000.66 1001.85 1002.31 1003.11 1003.78 1004.70 1005.41 1006.17 1006.73 1007.47 1007.84 1008.51 1009.10 1009.39 1009.86
Thickness
5698 5689 5694 5701 5707 5707 5704 5698 5699 5708 5713 5702 5694 5709 5711 5713 5706 5704 5702 5699 5699 5699 5704 5708 5710 5708 5700 5690 5677 5669 5662 5654 5646 5642 5637 5632 5630 5624 5621 5618 5616 5611 5611 5606
5687 5680 5697 5701 5696 5690 5687 5681 5681 5695 5700 5691 5685 5699 5703 5696 5696 5694 5694 5690 5687 5691 5699 5705 5701 5701 5694 5685 5676 5665 5656 5649 5641 5636 5634 5629 5629 5623 5620 5614 5610 5603 5603 5598
5682 5701 5697 5685 5681 5673 5674 5671 5669 5666 5677 5689 5664 5675 5709 5699 5704 5699 5691 5683 5681 5676 5683 5686 5686 5680 5676 5673 5669 5657 5650 5644 5638 5634 5627 5623 5620 5615 5617 5614 5606 5599 5594 5590
5681 5690 5679 5671 5664 5667 5654 5668 5659 5653 5645 5648 5674 5622 5703 5685 5691 5689 5681 5679 5668 5662 5662 5664 5665 5664 5661 5662 5660 5653 5643 5638 5632 5628 5624 5621 5618 5616 5619 5612 5604 5597 5590 5585
5664 5671 5662 5659 5658 5659 5648 5646 5640 5636 5628 5632 5671 5616 5687 5671 5674 5678 5682 5663 5654 5647 5643 5640 5641 5644 5649 5651 5650 5646 5640 5629 5623 5619 5614 5616 5614 5611 5611 5605 5597 5591 5583 5579
5663 5671 5662 5651 5649 5641 5634 5618 5622 5626 5618 5607 5655 5631 5672 5662 5662 5668 5655 5648 5638 5634 5626 5624 5622 5621 5622 5627 5629 5633 5629 5618 5610 5607 5603 5605 5605 5603 5600 5597 5594 5588 5581 5574
5651 5651 5652 5629 5619 5623 5609 5597 5585 5588 5605 5600 5640 5633 5653 5664 5665 5649 5631 5628 5619 5607 5604 5599 5599 5600 5602 5601 5603 5607 5607 5606 5593 5588 5588 5588 5589 5588 5592 5591 5587 5580 5576 5573
5620 5621 5636 5612 5599 5589 5586 5570 5560 5554 5587 5600 5622 5608 5640 5654 5649 5636 5614 5603 5598 5592 5585 5582 5582 5581 5582 5583 5586 5585 5584 5581 5577 5573 5570 5568 5567 5567 5572 5576 5576 5567 5562 5561
5589 5595 5598 5586 5577 5571 5555 5554 5556 5525 5545 5539 5585 5604 5627 5631 5619 5594 5580 5576 5573 5573 5570 5567 5562 5559 5561 5560 5561 5562 5562 5560 5555 5552 5547 5544 5543 5545 5550 5552 5553 5549 5547 5547
5546 5555 5575 5567 5562 5563 5555 5552 5531 5510 5512 5525 5573 5584 5597 5587 5568 5565 5560 5549 5548 5548 5544 5539 5537 5539 5542 5541 5538 5539 5541 5537 5534 5531 5527 5521 5519 5522 5523 5526 5528 5528 5528 5529
5530 5526 5551 5543 5540 5544 5538 5522 5501 5501 5507 5492 5500 5551 5573 5532 5535 5533 5534 5529 5522 5520 5520 5518 5517 5518 5522 5523 5517 5516 5516 5511 5512 5508 5505 5499 5499 5497 5500 5504 5507 5509 5510 5513
5506 5508 5521 5529 5533 5530 5519 5510 5493 5480 5475 5470 5460 5488 5532 5517 5506 5504 5505 5511 5514 5507 5506 5503 5504 5506 5510 5508 5509 5504 5504 5508 5488 5488 5486 5481 5477 5477 5477 5479 5484 5486 5494 5497
5492 5492 5493 5539 5527 5517 5505 5492 5485 5471 5461 5454 5439 5480 5506 5488 5489 5495 5491 5495 5499 5494 5492 5493 5500 5507 5508 5507 5502 5496 5490 5490 5471 5464 5464 5461 5456 5457 5461 5464 5463 5466 5466 5475
5456 5467 5467 5485 5503 5480 5474 5473 5466 5455 5441 5446 5458 5457 5478 5475 5481 5483 5486 5485 5493 5490 5491 5500 5503 5504 5505 5500 5494 5488 5482 5472 5460 5449 5444 5440 5443 5439 5440 5444 5449 5454 5448 5446
5448 5447 5453 5467 5465 5458 5454 5451 5448 5446 5449 5437 5447 5457 5470 5450 5454 5468 5481 5486 5486 5481 5491 5493 5486 5488 5491 5486 5482 5478 5469 5453 5443 5439 5435 5434 5431 5427 5427 5430 5434 5436 5437 5434
5439 5432 5430 5431 5433 5433 5436 5442 5447 5450 5452 5451 5448 5435 5460 5452 5449 5458 5463 5469 5477 5482 5483 5480 5473 5457 5472 5472 5466 5460 5452 5443 5437 5435 5431 5426 5422 5417 5415 5419 5417 5421 5424 5425
5424 5414 5400 5410 5426 5424 5421 5437 5447 5446 5449 5440 5417 5438 5435 5434 5437 5433 5433 5450 5468 5474 5476 5469 5466 5467 5463 5461 5462 5461 5449 5431 5424 5423 5420 5417 5411 5410 5408 5410 5406 5407 5409 5409
5407 5403 5395 5389 5402 5387 5438 5455 5437 5425 5430 5434 5421 5409 5408 5419 5415 5420 5447 5460 5468 5470 5468 5467 5469 5466 5460 5460 5466 5462 5439 5427 5421 5417 5411 5407 5405 5401 5398 5398 5400 5403 5402 5402
5406 5397 5387 5382 5396 5413 5429 5438 5403 5401 5412 5395 5378 5391 5403 5414 5417 5432 5453 5455 5455 5465 5467 5465 5467 5466 5465 5463 5461 5439 5428 5422 5410 5403 5399 5401 5401 5403 5400 5398 5400 5399 5400 5399
5405 5388 5373 5378 5371 5381 5422 5428 5396 5409 5416 5380 5373 5382 5386 5393 5407 5436 5454 5458 5457 5464 5467 5469 5470 5471 5466 5461 5456 5441 5427 5411 5404 5396 5395 5397 5402 5404 5405 5404 5401 5402 5401 5402
5400 5390 5365 5369 5366 5384 5412 5385 5395 5390 5391 5375 5371 5378 5381 5390 5404 5436 5456 5462 5463 5467 5471 5472 5472 5471 5466 5458 5455 5449 5433 5420 5410 5400 5400 5398 5399 5401 5404 5403 5401 5399 5399 5397
5373 5370 5365 5365 5353 5355 5380 5383 5361 5361 5363 5364 5368 5376 5384 5392 5426 5444 5452 5456 5466 5469 5470 5474 5474 5470 5466 5459 5452 5453 5445 5429 5417 5405 5398 5397 5398 5399 5400 5400 5400 5401 5398 5391
5356 5360 5347 5346 5351 5362 5376 5359 5362 5361 5354 5363 5367 5378 5390 5402 5424 5438 5446 5451 5457 5467 5474 5476 5475 5471 5464 5459 5453 5452 5443 5430 5421 5411 5402 5397 5399 5398 5400 5401 5404 5402 5392 5389
5355 5357 5349 5348 5364 5366 5365 5367 5364 5354 5357 5367 5377 5387 5396 5401 5413 5426 5435 5443 5450 5460 5467 5472 5470 5469 5466 5458 5447 5442 5436 5432 5422 5414 5404 5400 5395 5396 5396 5399 5402 5397 5392 5389
5347 5348 5346 5348 5354 5359 5362 5356 5351 5355 5366 5369 5384 5388 5393 5398 5404 5409 5418 5428 5439 5449 5456 5461 5462 5461 5459 5455 5444 5427 5425 5421 5416 5409 5403 5395 5393 5387 5387 5388 5395 5395 5394 5396
5356 5350 5349 5353 5357 5352 5359 5359 5355 5358 5363 5375 5382 5384 5383 5386 5391 5400 5409 5415 5422 5425 5440 5449 5450 5448 5447 5447 5436 5421 5409 5407 5403 5400 5395 5392 5388 5387 5383 5385 5384 5384 5386 5387